Precipitable_Water
0.64 0.68 0.70 0.73 0.75 0.76 0.77 0.78 0.78 0.76 0.73 0.70 0.67 0.64 0.61 0.59 0.57 0.56 0.55 0.55 0.56 0.56 0.56 0.56 0.56 0.57 0.57 0.56 0.55 0.54 0.51 0.40 0.38 0.35 0.34 0.38 0.41 0.46 0.43 0.44 0.40 0.38 0.36 0.33 0.31 0.31 0.31 0.33 0.31 0.32 0.29 0.28 0.28 0.27 0.31 0.35 0.37 0.32 0.21 0.18 0.15 0.17 0.17 0.19 0.19 0.21 0.23 0.20 0.22 0.24 0.24 0.24 0.23 0.27 0.29 0.32 0.31 0.30 0.30 0.29 0.31 0.32 0.31 0.31 0.34 0.38 0.42 0.46
0.69 0.72 0.75 0.78 0.80 0.82 0.82 0.82 0.79 0.76 0.72 0.68 0.64 0.61 0.59 0.57 0.56 0.55 0.54 0.54 0.54 0.56 0.57 0.57 0.56 0.57 0.57 0.56 0.55 0.55 0.48 0.40 0.33 0.38 0.36 0.48 0.49 0.48 0.44 0.40 0.38 0.35 0.35 0.29 0.29 0.31 0.31 0.32 0.32 0.31 0.27 0.24 0.33 0.25 0.36 0.29 0.37 0.24 0.20 0.19 0.14 0.18 0.19 0.23 0.23 0.24 0.22 0.22 0.24 0.24 0.25 0.24 0.24 0.26 0.28 0.25 0.26 0.27 0.26 0.27 0.27 0.27 0.30 0.33 0.37 0.40 0.42 0.46
0.74 0.78 0.82 0.84 0.86 0.86 0.85 0.82 0.79 0.75 0.71 0.67 0.63 0.60 0.57 0.56 0.55 0.54 0.53 0.54 0.55 0.57 0.60 0.61 0.59 0.58 0.57 0.56 0.55 0.56 0.46 0.34 0.36 0.30 0.40 0.56 0.49 0.46 0.45 0.38 0.40 0.37 0.32 0.28 0.32 0.33 0.33 0.33 0.33 0.31 0.28 0.23 0.25 0.23 0.30 0.26 0.31 0.27 0.21 0.16 0.17 0.21 0.21 0.23 0.24 0.24 0.25 0.25 0.23 0.23 0.25 0.25 0.26 0.26 0.29 0.25 0.24 0.26 0.24 0.24 0.24 0.25 0.26 0.28 0.34 0.40 0.43 0.45
0.79 0.84 0.87 0.88 0.88 0.87 0.84 0.81 0.77 0.73 0.70 0.66 0.62 0.59 0.57 0.55 0.54 0.53 0.53 0.54 0.56 0.59 0.62 0.63 0.60 0.60 0.58 0.55 0.57 0.54 0.45 0.31 0.25 0.33 0.45 0.51 0.48 0.45 0.42 0.41 0.39 0.38 0.36 0.32 0.36 0.36 0.38 0.36 0.34 0.30 0.26 0.23 0.23 0.27 0.22 0.28 0.25 0.25 0.22 0.17 0.18 0.22 0.19 0.22 0.24 0.25 0.26 0.26 0.24 0.23 0.24 0.24 0.27 0.27 0.27 0.24 0.21 0.23 0.25 0.27 0.24 0.23 0.24 0.26 0.31 0.37 0.42 0.43
0.84 0.87 0.89 0.89 0.88 0.86 0.82 0.79 0.76 0.72 0.68 0.64 0.60 0.58 0.56 0.55 0.54 0.54 0.55 0.56 0.58 0.61 0.63 0.63 0.61 0.60 0.59 0.56 0.55 0.55 0.38 0.20 0.25 0.37 0.45 0.47 0.46 0.45 0.42 0.41 0.40 0.37 0.35 0.34 0.37 0.39 0.36 0.33 0.32 0.29 0.26 0.21 0.23 0.23 0.23 0.26 0.28 0.24 0.20 0.22 0.22 0.22 0.19 0.22 0.24 0.26 0.26 0.27 0.25 0.24 0.21 0.22 0.27 0.27 0.26 0.24 0.20 0.21 0.25 0.26 0.26 0.25 0.25 0.25 0.28 0.34 0.40 0.40
0.87 0.89 0.89 0.88 0.86 0.83 0.79 0.76 0.73 0.70 0.67 0.63 0.59 0.57 0.57 0.56 0.55 0.56 0.56 0.58 0.60 0.62 0.62 0.62 0.62 0.61 0.59 0.56 0.55 0.50 0.34 0.15 0.32 0.37 0.50 0.45 0.46 0.43 0.42 0.41 0.41 0.39 0.35 0.33 0.32 0.35 0.33 0.32 0.32 0.27 0.25 0.24 0.22 0.20 0.22 0.24 0.27 0.18 0.21 0.22 0.24 0.24 0.20 0.23 0.25 0.26 0.26 0.25 0.24 0.22 0.24 0.24 0.23 0.23 0.25 0.24 0.23 0.24 0.29 0.28 0.27 0.27 0.26 0.26 0.28 0.32 0.35 0.37
0.90 0.90 0.89 0.86 0.83 0.79 0.76 0.73 0.71 0.69 0.65 0.62 0.59 0.58 0.57 0.56 0.55 0.56 0.57 0.60 0.61 0.62 0.63 0.63 0.62 0.63 0.59 0.58 0.55 0.44 0.31 0.32 0.43 0.57 0.49 0.49 0.43 0.42 0.41 0.41 0.42 0.37 0.35 0.32 0.31 0.32 0.32 0.30 0.31 0.27 0.26 0.24 0.24 0.22 0.23 0.24 0.26 0.22 0.18 0.23 0.23 0.25 0.22 0.25 0.24 0.26 0.25 0.23 0.23 0.25 0.26 0.23 0.23 0.19 0.24 0.23 0.25 0.26 0.28 0.29 0.29 0.29 0.27 0.27 0.27 0.30 0.31 0.33
0.90 0.88 0.86 0.83 0.79 0.75 0.73 0.71 0.69 0.67 0.64 0.62 0.60 0.59 0.58 0.57 0.55 0.56 0.58 0.60 0.60 0.63 0.65 0.63 0.62 0.60 0.59 0.50 0.41 0.33 0.32 0.30 0.42 0.53 0.53 0.45 0.41 0.39 0.41 0.42 0.40 0.37 0.33 0.30 0.30 0.30 0.31 0.29 0.28 0.29 0.26 0.22 0.24 0.23 0.24 0.22 0.23 0.20 0.20 0.23 0.23 0.25 0.24 0.25 0.25 0.25 0.25 0.25 0.26 0.25 0.23 0.23 0.25 0.22 0.22 0.20 0.24 0.27 0.29 0.30 0.30 0.30 0.28 0.27 0.27 0.28 0.29 0.29
0.87 0.85 0.83 0.79 0.75 0.72 0.70 0.69 0.68 0.66 0.64 0.62 0.61 0.59 0.58 0.56 0.54 0.55 0.58 0.60 0.61 0.64 0.64 0.64 0.63 0.60 0.61 0.48 0.37 0.27 0.27 0.42 0.47 0.46 0.45 0.42 0.41 0.41 0.42 0.39 0.39 0.34 0.31 0.32 0.33 0.32 0.30 0.29 0.30 0.32 0.25 0.25 0.27 0.23 0.24 0.20 0.18 0.23 0.22 0.24 0.23 0.23 0.23 0.24 0.24 0.25 0.25 0.25 0.26 0.23 0.21 0.24 0.25 0.25 0.19 0.20 0.24 0.27 0.28 0.29 0.31 0.30 0.30 0.29 0.27 0.27 0.27 0.26
0.83 0.81 0.79 0.76 0.72 0.70 0.69 0.68 0.67 0.66 0.65 0.64 0.61 0.58 0.57 0.55 0.53 0.55 0.59 0.61 0.62 0.62 0.63 0.63 0.63 0.60 0.51 0.40 0.35 0.22 0.37 0.47 0.47 0.45 0.44 0.42 0.41 0.41 0.41 0.39 0.38 0.34 0.31 0.31 0.33 0.32 0.30 0.31 0.32 0.35 0.33 0.28 0.28 0.22 0.24 0.23 0.20 0.25 0.24 0.23 0.21 0.22 0.22 0.23 0.22 0.23 0.26 0.24 0.26 0.22 0.20 0.21 0.24 0.23 0.14 0.20 0.24 0.26 0.26 0.27 0.29 0.30 0.29 0.31 0.30 0.28 0.28 0.27
0.81 0.79 0.77 0.73 0.71 0.70 0.69 0.68 0.68 0.67 0.66 0.65 0.62 0.58 0.59 0.57 0.54 0.55 0.60 0.60 0.61 0.61 0.62 0.62 0.62 0.57 0.42 0.40 0.28 0.24 0.49 0.47 0.46 0.45 0.45 0.42 0.41 0.40 0.38 0.39 0.38 0.34 0.32 0.32 0.33 0.37 0.37 0.37 0.38 0.36 0.31 0.26 0.25 0.25 0.25 0.25 0.26 0.25 0.24 0.22 0.22 0.22 0.23 0.23 0.23 0.22 0.24 0.22 0.25 0.23 0.19 0.20 0.20 0.20 0.14 0.17 0.24 0.25 0.24 0.25 0.26 0.28 0.29 0.30 0.32 0.32 0.29 0.28
0.82 0.78 0.74 0.71 0.70 0.69 0.69 0.69 0.69 0.68 0.67 0.65 0.63 0.60 0.61 0.59 0.55 0.57 0.61 0.60 0.59 0.60 0.61 0.62 0.60 0.56 0.45 0.36 0.31 0.31 0.48 0.46 0.47 0.45 0.45 0.43 0.41 0.43 0.41 0.41 0.39 0.35 0.34 0.32 0.35 0.39 0.41 0.40 0.39 0.33 0.25 0.32 0.24 0.27 0.26 0.28 0.26 0.25 0.24 0.18 0.19 0.21 0.19 0.22 0.20 0.22 0.24 0.21 0.25 0.24 0.17 0.13 0.14 0.12 0.16 0.20 0.23 0.24 0.24 0.24 0.25 0.25 0.26 0.29 0.31 0.32 0.32 0.29
0.80 0.76 0.72 0.70 0.70 0.70 0.71 0.71 0.70 0.68 0.68 0.66 0.62 0.60 0.61 0.58 0.55 0.59 0.63 0.60 0.60 0.59 0.61 0.63 0.60 0.55 0.43 0.28 0.34 0.48 0.47 0.47 0.45 0.45 0.46 0.48 0.45 0.44 0.44 0.44 0.42 0.42 0.40 0.37 0.38 0.42 0.44 0.42 0.39 0.31 0.33 0.30 0.27 0.23 0.28 0.29 0.26 0.26 0.24 0.21 0.17 0.16 0.15 0.21 0.23 0.23 0.22 0.23 0.25 0.24 0.11 0.08 0.10 0.14 0.17 0.21 0.22 0.23 0.23 0.23 0.24 0.25 0.26 0.27 0.28 0.30 0.31 0.33
0.78 0.74 0.70 0.69 0.70 0.72 0.72 0.72 0.70 0.68 0.67 0.65 0.61 0.61 0.61 0.59 0.57 0.60 0.62 0.61 0.61 0.62 0.63 0.63 0.60 0.52 0.42 0.31 0.41 0.46 0.46 0.48 0.48 0.46 0.46 0.48 0.43 0.43 0.48 0.48 0.48 0.45 0.46 0.43 0.44 0.46 0.44 0.44 0.39 0.34 0.37 0.30 0.26 0.33 0.26 0.26 0.27 0.21 0.22 0.22 0.16 0.13 0.12 0.19 0.21 0.23 0.20 0.24 0.25 0.25 0.14 0.10 0.09 0.15 0.18 0.21 0.22 0.22 0.21 0.23 0.24 0.24 0.25 0.27 0.28 0.27 0.28 0.31
0.77 0.73 0.71 0.70 0.72 0.72 0.72 0.72 0.70 0.69 0.68 0.66 0.62 0.61 0.63 0.60 0.58 0.61 0.61 0.61 0.60 0.62 0.63 0.65 0.62 0.45 0.36 0.35 0.45 0.47 0.48 0.49 0.43 0.44 0.50 0.44 0.41 0.41 0.41 0.46 0.43 0.45 0.45 0.47 0.45 0.46 0.44 0.42 0.36 0.30 0.27 0.32 0.30 0.26 0.23 0.22 0.23 0.23 0.18 0.14 0.17 0.15 0.13 0.18 0.25 0.23 0.18 0.23 0.25 0.23 0.14 0.11 0.11 0.13 0.19 0.21 0.22 0.23 0.21 0.22 0.23 0.24 0.25 0.25 0.26 0.27 0.27 0.28
0.77 0.73 0.72 0.72 0.72 0.73 0.71 0.70 0.69 0.69 0.69 0.66 0.61 0.60 0.63 0.61 0.58 0.61 0.61 0.60 0.62 0.61 0.65 0.56 0.52 0.46 0.35 0.29 0.37 0.50 0.45 0.41 0.41 0.49 0.51 0.48 0.46 0.39 0.41 0.40 0.42 0.44 0.45 0.43 0.46 0.43 0.40 0.36 0.29 0.28 0.28 0.29 0.25 0.22 0.20 0.20 0.19 0.22 0.18 0.15 0.15 0.17 0.16 0.17 0.21 0.22 0.24 0.23 0.23 0.21 0.15 0.14 0.11 0.13 0.19 0.22 0.22 0.23 0.21 0.21 0.22 0.24 0.25 0.25 0.24 0.26 0.27 0.28
0.77 0.75 0.74 0.73 0.72 0.70 0.68 0.68 0.70 0.71 0.69 0.66 0.59 0.58 0.65 0.59 0.59 0.61 0.61 0.60 0.57 0.68 0.63 0.47 0.50 0.50 0.29 0.41 0.52 0.39 0.38 0.44 0.50 0.48 0.48 0.50 0.47 0.42 0.39 0.35 0.36 0.39 0.42 0.41 0.41 0.37 0.35 0.29 0.32 0.30 0.30 0.23 0.25 0.24 0.18 0.15 0.15 0.17 0.21 0.17 0.18 0.17 0.17 0.16 0.20 0.23 0.25 0.24 0.20 0.22 0.18 0.14 0.15 0.15 0.18 0.21 0.22 0.22 0.21 0.21 0.22 0.24 0.25 0.24 0.24 0.25 0.26 0.26
0.77 0.76 0.75 0.73 0.69 0.67 0.68 0.69 0.72 0.72 0.71 0.66 0.59 0.59 0.60 0.57 0.62 0.61 0.55 0.53 0.57 0.64 0.60 0.60 0.51 0.41 0.36 0.46 0.32 0.35 0.47 0.45 0.48 0.48 0.50 0.51 0.46 0.40 0.36 0.33 0.37 0.37 0.36 0.33 0.38 0.30 0.32 0.27 0.29 0.22 0.24 0.23 0.24 0.22 0.17 0.13 0.15 0.16 0.17 0.17 0.17 0.19 0.20 0.19 0.19 0.22 0.24 0.24 0.21 0.21 0.20 0.16 0.15 0.16 0.16 0.19 0.23 0.23 0.21 0.22 0.23 0.24 0.24 0.24 0.24 0.24 0.25 0.25
0.77 0.75 0.74 0.71 0.68 0.67 0.69 0.70 0.72 0.74 0.72 0.65 0.58 0.62 0.64 0.58 0.60 0.63 0.48 0.48 0.38 0.34 0.34 0.32 0.37 0.27 0.23 0.34 0.46 0.47 0.47 0.50 0.52 0.48 0.43 0.44 0.42 0.39 0.38 0.40 0.36 0.30 0.26 0.25 0.28 0.29 0.32 0.28 0.29 0.23 0.18 0.19 0.21 0.22 0.19 0.19 0.21 0.20 0.21 0.21 0.21 0.19 0.18 0.18 0.22 0.27 0.27 0.23 0.19 0.20 0.18 0.17 0.16 0.16 0.16 0.18 0.23 0.22 0.22 0.23 0.23 0.24 0.24 0.24 0.24 0.24 0.25 0.25
0.77 0.75 0.72 0.70 0.68 0.67 0.67 0.68 0.72 0.75 0.73 0.60 0.53 0.53 0.52 0.44 0.41 0.39 0.46 0.44 0.37 0.36 0.37 0.39 0.47 0.45 0.46 0.44 0.42 0.51 0.55 0.53 0.40 0.44 0.47 0.45 0.39 0.33 0.35 0.32 0.29 0.25 0.21 0.18 0.22 0.27 0.32 0.23 0.20 0.17 0.19 0.21 0.24 0.25 0.24 0.23 0.23 0.24 0.24 0.23 0.21 0.21 0.22 0.23 0.24 0.27 0.31 0.26 0.20 0.21 0.22 0.19 0.17 0.18 0.17 0.19 0.23 0.23 0.23 0.22 0.23 0.24 0.24 0.24 0.24 0.24 0.25 0.25
0.76 0.74 0.70 0.68 0.66 0.64 0.66 0.68 0.74 0.77 0.73 0.62 0.54 0.43 0.38 0.42 0.31 0.29 0.40 0.41 0.45 0.48 0.44 0.45 0.49 0.44 0.41 0.47 0.50 0.47 0.39 0.40 0.43 0.43 0.45 0.46 0.38 0.32 0.31 0.28 0.22 0.18 0.19 0.23 0.23 0.32 0.30 0.22 0.19 0.21 0.24 0.25 0.26 0.27 0.27 0.25 0.24 0.24 0.24 0.24 0.22 0.23 0.22 0.24 0.25 0.28 0.31 0.26 0.21 0.23 0.23 0.21 0.20 0.20 0.19 0.20 0.22 0.21 0.23 0.23 0.23 0.25 0.25 0.25 0.24 0.24 0.25 0.27
0.74 0.71 0.69 0.66 0.64 0.62 0.65 0.67 0.76 0.77 0.71 0.65 0.51 0.47 0.53 0.56 0.59 0.64 0.54 0.34 0.41 0.48 0.49 0.51 0.55 0.45 0.54 0.51 0.53 0.52 0.48 0.35 0.32 0.41 0.48 0.41 0.31 0.30 0.30 0.25 0.22 0.20 0.24 0.26 0.27 0.24 0.22 0.19 0.18 0.24 0.29 0.28 0.27 0.26 0.26 0.24 0.23 0.25 0.25 0.25 0.24 0.23 0.27 0.28 0.28 0.31 0.31 0.29 0.23 0.25 0.25 0.23 0.22 0.21 0.20 0.19 0.21 0.24 0.26 0.27 0.26 0.27 0.26 0.25 0.25 0.25 0.27 0.27
0.72 0.69 0.66 0.65 0.63 0.61 0.63 0.70 0.76 0.74 0.60 0.55 0.52 0.55 0.53 0.68 0.73 0.75 0.62 0.49 0.38 0.46 0.50 0.49 0.47 0.43 0.46 0.52 0.50 0.52 0.39 0.32 0.28 0.39 0.41 0.34 0.31 0.33 0.26 0.23 0.25 0.27 0.27 0.26 0.22 0.22 0.19 0.20 0.24 0.29 0.28 0.25 0.24 0.25 0.25 0.24 0.25 0.24 0.26 0.25 0.23 0.26 0.27 0.24 0.28 0.31 0.32 0.29 0.25 0.27 0.27 0.26 0.24 0.23 0.21 0.21 0.22 0.25 0.27 0.28 0.28 0.29 0.26 0.25 0.25 0.27 0.28 0.28
0.71 0.68 0.64 0.62 0.62 0.60 0.62 0.71 0.76 0.65 0.57 0.61 0.56 0.55 0.68 0.74 0.72 0.69 0.54 0.36 0.32 0.42 0.51 0.56 0.52 0.45 0.45 0.42 0.51 0.46 0.39 0.35 0.35 0.35 0.39 0.34 0.33 0.32 0.27 0.28 0.28 0.28 0.25 0.26 0.26 0.23 0.21 0.23 0.29 0.28 0.26 0.26 0.23 0.24 0.24 0.24 0.22 0.25 0.27 0.27 0.27 0.28 0.29 0.30 0.29 0.33 0.34 0.32 0.30 0.29 0.29 0.28 0.25 0.23 0.20 0.20 0.23 0.25 0.25 0.27 0.28 0.28 0.28 0.27 0.28 0.28 0.30 0.29
0.70 0.66 0.64 0.62 0.62 0.64 0.65 0.74 0.60 0.57 0.65 0.61 0.55 0.67 0.72 0.73 0.71 0.67 0.49 0.39 0.39 0.39 0.59 0.60 0.51 0.49 0.51 0.62 0.59 0.44 0.42 0.38 0.40 0.39 0.37 0.39 0.34 0.30 0.30 0.35 0.32 0.26 0.27 0.28 0.27 0.26 0.24 0.28 0.29 0.25 0.25 0.26 0.26 0.24 0.25 0.28 0.24 0.25 0.27 0.30 0.30 0.31 0.30 0.31 0.33 0.33 0.30 0.26 0.26 0.26 0.23 0.24 0.26 0.24 0.20 0.20 0.22 0.21 0.23 0.25 0.25 0.25 0.26 0.27 0.27 0.28 0.29 0.29
0.69 0.67 0.64 0.62 0.65 0.65 0.69 0.59 0.53 0.63 0.57 0.49 0.58 0.71 0.71 0.72 0.74 0.71 0.48 0.33 0.26 0.39 0.47 0.38 0.51 0.43 0.59 0.48 0.52 0.46 0.41 0.30 0.41 0.39 0.40 0.38 0.41 0.36 0.36 0.31 0.34 0.27 0.29 0.28 0.27 0.28 0.27 0.29 0.28 0.27 0.28 0.28 0.28 0.27 0.30 0.33 0.27 0.25 0.25 0.34 0.34 0.33 0.32 0.31 0.32 0.32 0.26 0.23 0.25 0.30 0.23 0.22 0.29 0.24 0.20 0.21 0.22 0.22 0.22 0.23 0.24 0.25 0.25 0.26 0.26 0.29 0.30 0.29
0.70 0.67 0.65 0.62 0.67 0.70 0.47 0.41 0.64 0.59 0.43 0.52 0.70 0.71 0.71 0.70 0.73 0.69 0.41 0.28 0.24 0.42 0.34 0.42 0.42 0.47 0.55 0.51 0.50 0.44 0.24 0.28 0.43 0.41 0.34 0.41 0.36 0.44 0.33 0.31 0.34 0.34 0.33 0.32 0.27 0.24 0.29 0.27 0.31 0.32 0.29 0.26 0.26 0.25 0.31 0.33 0.28 0.24 0.34 0.35 0.34 0.33 0.31 0.32 0.32 0.31 0.29 0.34 0.32 0.30 0.30 0.25 0.23 0.22 0.21 0.24 0.24 0.22 0.22 0.22 0.22 0.24 0.24 0.25 0.27 0.28 0.29 0.30
0.69 0.68 0.65 0.63 0.68 0.76 0.58 0.65 0.54 0.45 0.52 0.65 0.75 0.73 0.71 0.70 0.71 0.67 0.35 0.21 0.20 0.40 0.35 0.35 0.44 0.62 0.55 0.52 0.48 0.36 0.35 0.41 0.28 0.32 0.37 0.43 0.43 0.40 0.36 0.31 0.30 0.28 0.31 0.30 0.19 0.25 0.30 0.30 0.30 0.28 0.27 0.26 0.25 0.30 0.34 0.34 0.29 0.29 0.34 0.35 0.33 0.33 0.33 0.33 0.31 0.29 0.31 0.30 0.23 0.22 0.27 0.24 0.20 0.22 0.23 0.24 0.23 0.21 0.21 0.21 0.21 0.24 0.25 0.27 0.28 0.28 0.29 0.30
0.69 0.67 0.65 0.65 0.67 0.77 0.75 0.61 0.56 0.50 0.68 0.76 0.74 0.73 0.73 0.71 0.64 0.37 0.27 0.21 0.34 0.32 0.50 0.36 0.60 0.55 0.51 0.45 0.36 0.35 0.31 0.31 0.24 0.30 0.40 0.44 0.48 0.41 0.31 0.32 0.30 0.27 0.30 0.29 0.23 0.25 0.31 0.33 0.32 0.30 0.27 0.25 0.30 0.32 0.33 0.33 0.28 0.33 0.35 0.35 0.34 0.33 0.32 0.31 0.29 0.27 0.27 0.26 0.19 0.18 0.22 0.18 0.18 0.22 0.21 0.23 0.23 0.21 0.21 0.21 0.21 0.25 0.27 0.29 0.30 0.30 0.31 0.31
0.69 0.67 0.66 0.66 0.68 0.70 0.63 0.68 0.59 0.71 0.76 0.75 0.73 0.73 0.74 0.66 0.49 0.30 0.25 0.20 0.38 0.25 0.40 0.45 0.43 0.39 0.41 0.30 0.28 0.29 0.26 0.28 0.30 0.38 0.40 0.39 0.41 0.42 0.35 0.34 0.26 0.26 0.25 0.30 0.28 0.28 0.31 0.35 0.34 0.31 0.29 0.31 0.33 0.33 0.35 0.35 0.33 0.35 0.32 0.29 0.29 0.29 0.27 0.31 0.29 0.28 0.27 0.21 0.18 0.18 0.19 0.21 0.18 0.20 0.20 0.21 0.19 0.20 0.22 0.22 0.22 0.26 0.29 0.31 0.33 0.33 0.32 0.32
0.69 0.67 0.66 0.69 0.59 0.63 0.64 0.46 0.61 0.75 0.77 0.74 0.74 0.71 0.63 0.50 0.32 0.27 0.22 0.24 0.33 0.30 0.41 0.41 0.36 0.41 0.30 0.29 0.24 0.28 0.28 0.28 0.31 0.35 0.33 0.38 0.32 0.30 0.28 0.26 0.31 0.25 0.24 0.25 0.25 0.28 0.28 0.29 0.31 0.34 0.38 0.38 0.37 0.31 0.34 0.33 0.31 0.29 0.27 0.26 0.25 0.24 0.25 0.24 0.24 0.28 0.21 0.17 0.19 0.21 0.22 0.24 0.19 0.19 0.24 0.26 0.28 0.26 0.24 0.23 0.23 0.29 0.32 0.33 0.35 0.35 0.35 0.36
0.68 0.67 0.68 0.66 0.69 0.75 0.50 0.46 0.60 0.74 0.72 0.75 0.73 0.56 0.44 0.30 0.36 0.27 0.25 0.40 0.23 0.28 0.29 0.32 0.37 0.34 0.31 0.30 0.28 0.25 0.24 0.29 0.33 0.33 0.30 0.27 0.24 0.25 0.26 0.22 0.25 0.18 0.17 0.20 0.21 0.27 0.22 0.25 0.32 0.32 0.40 0.34 0.31 0.27 0.24 0.26 0.27 0.26 0.24 0.22 0.17 0.15 0.20 0.19 0.23 0.19 0.20 0.17 0.20 0.24 0.25 0.25 0.23 0.23 0.26 0.28 0.28 0.27 0.26 0.26 0.26 0.31 0.36 0.39 0.37 0.35 0.38 0.41
0.68 0.68 0.72 0.72 0.75 0.67 0.71 0.77 0.80 0.76 0.80 0.81 0.59 0.51 0.35 0.29 0.25 0.28 0.27 0.33 0.23 0.35 0.32 0.39 0.33 0.31 0.29 0.26 0.23 0.26 0.31 0.26 0.33 0.30 0.27 0.22 0.25 0.26 0.26 0.23 0.25 0.28 0.20 0.25 0.23 0.22 0.20 0.25 0.28 0.31 0.30 0.36 0.32 0.20 0.20 0.21 0.24 0.21 0.18 0.17 0.15 0.15 0.16 0.14 0.16 0.19 0.19 0.21 0.24 0.23 0.28 0.24 0.25 0.27 0.30 0.30 0.29 0.30 0.30 0.30 0.33 0.36 0.40 0.41 0.42 0.40 0.42 0.45
0.70 0.76 0.71 0.75 0.77 0.78 0.84 0.88 0.86 0.86 0.77 0.71 0.54 0.43 0.36 0.29 0.27 0.38 0.29 0.29 0.27 0.38 0.36 0.32 0.31 0.30 0.27 0.24 0.24 0.30 0.25 0.31 0.30 0.22 0.21 0.22 0.20 0.18 0.17 0.26 0.36 0.31 0.31 0.27 0.20 0.22 0.15 0.13 0.20 0.21 0.20 0.32 0.26 0.24 0.25 0.23 0.22 0.20 0.21 0.20 0.20 0.19 0.14 0.12 0.14 0.13 0.14 0.17 0.20 0.23 0.21 0.18 0.18 0.19 0.30 0.30 0.33 0.35 0.36 0.38 0.43 0.49 0.48 0.46 0.44 0.41 0.41 0.42
0.78 0.78 0.79 0.79 0.81 0.86 0.90 0.92 0.89 0.92 0.79 0.60 0.42 0.36 0.31 0.30 0.30 0.27 0.27 0.28 0.33 0.37 0.31 0.37 0.29 0.26 0.25 0.28 0.28 0.30 0.29 0.22 0.23 0.20 0.20 0.18 0.17 0.19 0.22 0.30 0.35 0.36 0.33 0.21 0.25 0.23 0.17 0.17 0.20 0.28 0.26 0.29 0.23 0.26 0.27 0.25 0.25 0.27 0.28 0.30 0.21 0.14 0.18 0.16 0.17 0.19 0.19 0.18 0.18 0.18 0.17 0.21 0.21 0.28 0.32 0.34 0.36 0.39 0.42 0.50 0.48 0.44 0.43 0.44 0.41 0.41 0.41 0.41
0.77 0.78 0.82 0.75 0.78 0.89 0.91 0.95 0.93 0.89 0.70 0.51 0.38 0.35 0.33 0.33 0.30 0.35 0.29 0.42 0.38 0.31 0.33 0.32 0.28 0.25 0.25 0.24 0.27 0.26 0.30 0.21 0.20 0.22 0.18 0.22 0.21 0.24 0.29 0.33 0.34 0.37 0.31 0.24 0.27 0.19 0.21 0.14 0.18 0.24 0.26 0.26 0.26 0.29 0.31 0.38 0.22 0.30 0.30 0.21 0.17 0.25 0.26 0.21 0.20 0.21 0.21 0.21 0.19 0.22 0.21 0.23 0.30 0.31 0.32 0.35 0.38 0.43 0.51 0.49 0.45 0.45 0.45 0.42 0.40 0.38 0.39 0.37
0.71 0.77 0.69 0.76 0.81 0.92 0.95 0.95 0.94 0.81 0.65 0.45 0.37 0.35 0.36 0.35 0.34 0.31 0.35 0.33 0.36 0.37 0.32 0.24 0.24 0.25 0.23 0.22 0.24 0.24 0.23 0.21 0.20 0.22 0.17 0.24 0.20 0.29 0.29 0.34 0.39 0.34 0.33 0.30 0.25 0.32 0.21 0.19 0.23 0.22 0.21 0.25 0.33 0.35 0.33 0.33 0.36 0.26 0.17 0.21 0.30 0.29 0.22 0.20 0.18 0.21 0.18 0.14 0.16 0.22 0.20 0.22 0.22 0.17 0.31 0.32 0.33 0.36 0.40 0.42 0.44 0.41 0.38 0.35 0.34 0.34 0.35 0.35
0.73 0.74 0.75 0.76 0.85 0.96 1.04 1.00 0.89 0.77 0.59 0.43 0.37 0.38 0.45 0.36 0.43 0.35 0.43 0.40 0.39 0.39 0.31 0.28 0.28 0.31 0.25 0.24 0.21 0.21 0.20 0.18 0.19 0.23 0.20 0.24 0.20 0.36 0.31 0.27 0.32 0.32 0.34 0.38 0.28 0.31 0.36 0.22 0.20 0.20 0.23 0.28 0.33 0.29 0.24 0.23 0.28 0.23 0.23 0.33 0.21 0.18 0.17 0.20 0.20 0.13 0.15 0.15 0.17 0.16 0.14 0.15 0.16 0.18 0.27 0.27 0.29 0.33 0.38 0.37 0.34 0.31 0.30 0.29 0.27 0.26 0.29 0.32
0.76 0.71 0.61 0.81 0.98 1.01 0.97 0.99 0.85 0.69 0.53 0.42 0.39 0.37 0.39 0.37 0.42 0.41 0.44 0.43 0.43 0.36 0.29 0.31 0.27 0.30 0.27 0.23 0.23 0.21 0.19 0.18 0.22 0.21 0.20 0.23 0.18 0.30 0.27 0.31 0.26 0.32 0.34 0.35 0.28 0.31 0.33 0.22 0.20 0.24 0.23 0.27 0.25 0.21 0.15 0.19 0.26 0.31 0.33 0.27 0.31 0.26 0.22 0.19 0.20 0.19 0.16 0.11 0.11 0.12 0.18 0.18 0.27 0.24 0.23 0.22 0.33 0.33 0.23 0.19 0.20 0.21 0.20 0.20 0.21 0.23 0.25 0.28
0.67 0.58 0.56 0.87 1.02 1.01 1.01 0.93 0.75 0.62 0.48 0.40 0.40 0.37 0.44 0.36 0.39 0.47 0.48 0.45 0.40 0.35 0.33 0.29 0.31 0.25 0.25 0.23 0.22 0.19 0.22 0.22 0.22 0.21 0.22 0.25 0.21 0.29 0.25 0.32 0.26 0.26 0.29 0.34 0.30 0.37 0.26 0.33 0.19 0.21 0.25 0.23 0.16 0.19 0.20 0.24 0.24 0.24 0.22 0.19 0.19 0.18 0.20 0.19 0.19 0.17 0.16 0.17 0.16 0.14 0.13 0.15 0.18 0.16 0.15 0.24 0.20 0.13 0.11 0.10 0.10 0.12 0.15 0.16 0.18 0.20 0.22 0.23
0.70 0.57 0.63 0.92 1.00 1.04 0.98 0.79 0.61 0.51 0.45 0.47 0.44 0.38 0.40 0.35 0.42 0.44 0.47 0.47 0.43 0.46 0.35 0.31 0.29 0.25 0.24 0.21 0.20 0.26 0.23 0.22 0.21 0.18 0.19 0.18 0.20 0.16 0.30 0.26 0.29 0.26 0.31 0.31 0.28 0.30 0.24 0.23 0.18 0.20 0.19 0.17 0.17 0.21 0.25 0.24 0.22 0.19 0.17 0.14 0.14 0.15 0.16 0.16 0.15 0.24 0.21 0.16 0.13 0.11 0.09 0.10 0.10 0.13 0.17 0.10 0.07 0.06 0.06 0.07 0.07 0.09 0.11 0.14 0.17 0.18 0.20 0.22
0.63 0.55 0.63 0.96 1.05 0.98 0.75 0.54 0.54 0.57 0.49 0.41 0.35 0.43 0.38 0.50 0.41 0.40 0.41 0.45 0.42 0.36 0.43 0.34 0.32 0.27 0.24 0.24 0.25 0.26 0.23 0.20 0.19 0.19 0.21 0.17 0.22 0.24 0.30 0.33 0.31 0.31 0.27 0.24 0.24 0.28 0.28 0.25 0.21 0.16 0.16 0.17 0.18 0.19 0.20 0.20 0.17 0.15 0.16 0.15 0.20 0.18 0.16 0.12 0.09 0.09 0.09 0.08 0.08 0.07 0.07 0.07 0.16 0.12 0.09 0.08 0.07 0.07 0.08 0.09 0.09 0.09 0.11 0.14 0.17 0.19 0.23 0.26
0.59 0.56 0.91 0.95 0.99 0.87 0.63 0.49 0.54 0.49 0.43 0.44 0.51 0.45 0.47 0.43 0.41 0.42 0.38 0.37 0.32 0.36 0.34 0.31 0.28 0.25 0.26 0.27 0.25 0.24 0.23 0.19 0.18 0.17 0.19 0.22 0.23 0.28 0.30 0.30 0.30 0.28 0.27 0.24 0.24 0.22 0.23 0.16 0.14 0.16 0.18 0.17 0.16 0.16 0.16 0.16 0.18 0.15 0.13 0.12 0.11 0.09 0.10 0.09 0.09 0.10 0.09 0.08 0.07 0.07 0.07 0.07 0.10 0.10 0.09 0.09 0.10 0.12 0.12 0.12 0.13 0.15 0.19 0.21 0.22 0.25 0.30 0.32
0.66 0.66 0.70 0.88 0.90 0.79 0.54 0.43 0.41 0.42 0.42 0.47 0.46 0.42 0.46 0.42 0.39 0.38 0.37 0.36 0.32 0.32 0.30 0.27 0.27 0.29 0.25 0.28 0.26 0.21 0.24 0.17 0.22 0.22 0.21 0.24 0.20 0.29 0.29 0.28 0.28 0.24 0.22 0.21 0.18 0.24 0.14 0.15 0.14 0.12 0.11 0.11 0.11 0.11 0.11 0.13 0.12 0.10 0.10 0.09 0.09 0.09 0.09 0.09 0.09 0.09 0.08 0.07 0.08 0.07 0.05 0.06 0.09 0.10 0.11 0.11 0.11 0.12 0.14 0.17 0.21 0.25 0.27 0.28 0.26 0.27 0.31 0.34
0.67 0.69 0.67 0.72 0.75 0.67 0.49 0.48 0.42 0.41 0.43 0.41 0.40 0.36 0.36 0.36 0.39 0.37 0.35 0.32 0.34 0.31 0.28 0.27 0.28 0.28 0.24 0.26 0.23 0.23 0.24 0.21 0.20 0.23 0.23 0.22 0.22 0.26 0.26 0.25 0.25 0.22 0.23 0.22 0.24 0.25 0.16 0.15 0.13 0.11 0.09 0.08 0.07 0.07 0.08 0.09 0.10 0.11 0.11 0.10 0.10 0.09 0.09 0.10 0.08 0.09 0.08 0.08 0.08 0.07 0.06 0.08 0.10 0.11 0.11 0.12 0.13 0.15 0.17 0.23 0.29 0.30 0.29 0.28 0.28 0.28 0.29 0.35
0.50 0.42 0.55 0.52 0.63 0.61 0.57 0.61 0.54 0.47 0.42 0.41 0.37 0.36 0.36 0.31 0.35 0.37 0.34 0.31 0.32 0.30 0.30 0.26 0.23 0.25 0.23 0.21 0.20 0.20 0.21 0.25 0.21 0.21 0.20 0.19 0.20 0.22 0.23 0.22 0.22 0.21 0.21 0.22 0.22 0.22 0.17 0.15 0.14 0.13 0.12 0.10 0.10 0.11 0.12 0.12 0.11 0.10 0.10 0.11 0.10 0.11 0.13 0.12 0.12 0.10 0.08 0.08 0.09 0.10 0.10 0.11 0.11 0.12 0.14 0.16 0.16 0.17 0.23 0.27 0.29 0.29 0.30 0.30 0.30 0.29 0.30 0.36
0.51 0.41 0.47 0.45 0.59 0.57 0.53 0.55 0.49 0.47 0.38 0.41 0.34 0.39 0.34 0.33 0.33 0.33 0.36 0.26 0.33 0.28 0.23 0.23 0.22 0.21 0.23 0.22 0.21 0.20 0.22 0.20 0.21 0.20 0.19 0.19 0.19 0.20 0.22 0.21 0.20 0.19 0.20 0.20 0.25 0.20 0.16 0.13 0.12 0.12 0.12 0.11 0.11 0.11 0.12 0.13 0.11 0.11 0.11 0.10 0.11 0.12 0.13 0.12 0.11 0.09 0.11 0.11 0.09 0.12 0.13 0.13 0.15 0.18 0.16 0.14 0.18 0.26 0.29 0.28 0.28 0.27 0.28 0.29 0.28 0.29 0.31 0.39
0.41 0.48 0.51 0.56 0.48 0.44 0.47 0.45 0.48 0.45 0.44 0.44 0.38 0.42 0.36 0.33 0.32 0.26 0.31 0.30 0.29 0.24 0.19 0.28 0.26 0.25 0.24 0.22 0.22 0.19 0.19 0.18 0.18 0.17 0.20 0.20 0.19 0.20 0.18 0.18 0.17 0.18 0.21 0.19 0.20 0.17 0.15 0.12 0.12 0.13 0.11 0.11 0.12 0.12 0.14 0.13 0.12 0.11 0.11 0.12 0.12 0.13 0.13 0.11 0.12 0.12 0.12 0.12 0.11 0.14 0.18 0.17 0.14 0.12 0.13 0.20 0.28 0.27 0.27 0.26 0.27 0.27 0.28 0.28 0.28 0.30 0.33 0.41
0.51 0.56 0.56 0.61 0.47 0.48 0.48 0.47 0.46 0.42 0.40 0.41 0.39 0.39 0.34 0.32 0.29 0.30 0.27 0.23 0.24 0.21 0.24 0.19 0.22 0.24 0.24 0.24 0.22 0.19 0.19 0.16 0.16 0.19 0.19 0.20 0.19 0.19 0.17 0.17 0.18 0.19 0.19 0.18 0.17 0.18 0.16 0.14 0.13 0.14 0.14 0.14 0.13 0.13 0.13 0.12 0.12 0.12 0.11 0.11 0.12 0.11 0.11 0.12 0.11 0.12 0.13 0.14 0.16 0.16 0.13 0.11 0.12 0.14 0.23 0.23 0.23 0.27 0.26 0.26 0.25 0.24 0.23 0.23 0.24 0.28 0.35 0.40
0.52 0.49 0.47 0.54 0.48 0.46 0.46 0.44 0.43 0.41 0.37 0.42 0.36 0.37 0.36 0.33 0.29 0.29 0.29 0.24 0.20 0.23 0.27 0.22 0.23 0.24 0.24 0.24 0.23 0.20 0.20 0.21 0.20 0.18 0.20 0.19 0.18 0.17 0.17 0.16 0.15 0.18 0.17 0.16 0.17 0.17 0.16 0.12 0.14 0.14 0.13 0.11 0.12 0.13 0.13 0.12 0.12 0.10 0.11 0.11 0.10 0.11 0.11 0.10 0.11 0.14 0.16 0.13 0.10 0.10 0.11 0.11 0.13 0.16 0.14 0.16 0.22 0.25 0.25 0.23 0.21 0.21 0.21 0.22 0.23 0.29 0.30 0.30
0.57 0.54 0.50 0.42 0.39 0.42 0.43 0.43 0.41 0.39 0.36 0.39 0.33 0.32 0.32 0.32 0.28 0.29 0.25 0.27 0.23 0.22 0.25 0.23 0.25 0.24 0.25 0.24 0.22 0.21 0.25 0.23 0.23 0.21 0.21 0.20 0.16 0.18 0.17 0.16 0.18 0.15 0.16 0.15 0.15 0.15 0.16 0.13 0.14 0.13 0.11 0.10 0.10 0.10 0.11 0.11 0.11 0.10 0.10 0.09 0.09 0.09 0.08 0.10 0.12 0.10 0.08 0.09 0.11 0.11 0.11 0.11 0.14 0.15 0.15 0.17 0.22 0.24 0.22 0.20 0.19 0.19 0.20 0.21 0.24 0.28 0.29 0.29
0.54 0.55 0.53 0.44 0.36 0.45 0.39 0.41 0.40 0.36 0.31 0.32 0.30 0.29 0.28 0.27 0.28 0.27 0.22 0.28 0.29 0.29 0.28 0.27 0.26 0.24 0.22 0.21 0.20 0.23 0.25 0.24 0.23 0.22 0.22 0.22 0.22 0.20 0.20 0.19 0.19 0.17 0.17 0.16 0.17 0.15 0.15 0.14 0.12 0.12 0.10 0.09 0.10 0.11 0.11 0.12 0.11 0.09 0.08 0.09 0.09 0.11 0.10 0.08 0.09 0.10 0.11 0.13 0.12 0.11 0.10 0.12 0.14 0.15 0.14 0.16 0.20 0.21 0.19 0.17 0.17 0.18 0.19 0.21 0.25 0.28 0.31 0.31
Wind_Speed
14 15 16 16 17 18 19 20 20 21 22 23 24 24 25 26 27 28 29 30 30 30 29 28 27 26 25 25 25 24 23 22 20 16 14 13 14 15 16 17 17 18 18 19 19 18 18 19 20 21 21 21 21 21 21 20 20 20 19 20 21 20 21 21 20 20 21 22 22 21 21 20 23 24 24 24 22 22 22 22 22 22 21 21 20 19 18 16
14 15 16 17 18 19 19 20 21 22 23 24 25 26 27 28 29 30 31 31 31 31 30 29 28 26 26 25 25 24 23 20 17 15 14 14 14 15 16 17 18 18 18 18 19 18 18 19 20 21 21 21 21 20 21 21 20 19 19 20 20 19 21 21 20 21 21 22 22 21 21 20 22 24 24 24 23 23 23 23 22 22 22 21 20 18 17 17
15 16 17 18 19 20 20 21 22 23 24 25 26 27 28 29 30 31 32 33 33 32 31 29 28 27 26 25 25 24 22 19 15 14 14 15 15 16 17 17 18 18 18 18 18 18 18 19 20 21 21 21 21 20 21 21 20 19 19 20 20 19 21 22 21 22 22 23 23 22 22 21 22 23 23 24 25 24 23 23 21 21 22 22 20 18 18 17
16 17 18 19 20 20 21 22 23 24 25 26 27 28 29 31 32 33 33 33 33 32 31 30 29 27 26 25 25 24 21 17 14 15 15 16 17 17 17 18 18 19 19 18 18 19 19 19 20 21 21 21 21 21 20 21 20 20 19 20 20 19 22 22 22 23 23 23 23 22 23 23 24 23 22 23 25 25 22 22 21 21 23 22 21 19 18 18
16 17 18 19 20 21 22 23 24 25 26 27 28 29 30 32 33 34 34 34 33 32 32 30 29 27 26 25 24 23 20 16 15 16 16 17 18 17 18 19 19 19 19 19 18 19 20 19 20 20 20 21 22 21 21 20 20 20 20 20 21 20 21 23 22 23 23 23 23 23 23 24 24 23 22 22 23 23 23 22 21 22 22 22 20 20 19 18
17 18 19 20 21 22 23 24 25 26 27 28 29 30 31 33 34 34 34 34 33 33 32 29 28 26 25 25 23 22 19 16 16 17 17 18 18 18 19 20 20 20 19 19 19 19 19 19 20 21 21 22 22 21 22 21 20 21 22 21 22 21 21 23 23 23 23 22 23 23 23 24 24 24 23 22 21 24 25 24 23 23 23 22 20 19 19 19
18 19 20 21 22 23 24 25 26 27 28 29 31 32 33 34 35 34 34 34 33 33 31 28 27 26 25 24 22 21 19 17 18 18 18 18 17 18 20 21 21 20 20 19 19 19 19 20 21 22 22 22 22 21 22 23 21 22 22 22 24 23 22 23 24 24 23 23 24 25 25 25 24 24 25 23 24 27 27 25 25 25 24 22 21 20 20 20
19 20 21 22 23 24 25 26 27 28 29 31 32 33 34 35 35 34 34 33 33 32 30 28 26 25 25 23 21 21 18 17 19 18 17 17 18 19 21 21 21 20 20 19 20 20 20 21 21 22 22 22 22 22 23 23 22 21 22 23 24 24 24 24 25 26 26 25 27 26 26 27 26 24 25 26 28 29 27 26 25 25 24 23 22 21 21 22
20 21 22 23 24 25 26 27 28 29 31 32 33 34 35 35 35 34 34 33 32 32 30 28 26 25 24 22 21 20 17 18 19 17 17 17 19 20 21 21 21 20 20 20 20 20 20 21 22 22 23 23 23 23 23 23 22 21 23 24 25 26 26 26 26 27 27 26 27 26 27 29 27 24 26 28 29 29 28 26 26 25 24 24 23 23 24 24
21 22 23 24 25 26 27 28 29 30 32 33 34 35 35 36 35 34 33 32 32 31 30 28 27 25 24 23 21 18 18 19 18 17 17 18 19 20 20 20 20 20 20 21 21 20 21 21 22 22 23 23 22 22 22 21 22 23 25 25 26 27 27 26 26 28 29 27 26 26 29 30 26 24 25 28 29 27 26 27 26 25 25 25 25 25 25 26
21 23 24 25 26 27 28 29 30 32 33 34 35 36 36 36 36 34 33 31 31 31 30 29 27 25 24 22 20 18 18 18 16 16 17 18 19 19 19 20 20 20 21 21 21 21 22 23 22 22 22 22 22 23 22 22 24 26 26 27 27 27 27 26 26 28 28 27 26 26 31 30 25 24 26 29 30 26 26 28 28 27 26 26 26 26 27 27
22 23 25 26 27 28 29 30 32 33 34 35 36 37 37 36 36 34 32 31 30 30 30 29 27 25 23 21 18 17 16 16 16 16 17 17 18 18 19 20 21 21 21 21 23 23 24 23 22 21 22 22 23 23 23 24 26 26 26 27 28 27 27 27 26 26 26 26 27 27 31 30 25 25 28 30 31 28 28 29 29 28 29 28 28 28 28 29
24 25 26 27 28 29 30 32 33 33 34 35 37 38 37 37 36 34 31 30 30 30 30 29 26 23 21 19 17 15 15 16 17 16 16 17 17 19 20 21 21 21 22 23 24 25 24 23 21 21 22 23 23 24 25 26 26 26 26 26 29 29 27 27 27 26 26 27 27 27 31 32 27 26 29 30 31 31 31 31 31 30 30 30 30 30 30 30
25 26 27 28 29 30 31 32 33 34 35 36 38 38 37 36 35 33 31 30 30 30 30 27 24 21 19 17 15 15 15 16 16 15 17 17 19 21 21 21 22 22 23 24 25 25 24 23 22 22 23 23 24 26 27 26 26 26 26 26 28 30 29 29 28 26 26 28 28 27 29 34 33 28 28 30 31 32 33 33 33 32 32 32 32 32 32 32
26 27 28 29 30 31 32 33 34 35 36 37 39 38 37 35 34 32 30 30 30 30 28 24 22 20 18 15 14 14 15 16 16 17 18 19 20 21 21 22 23 24 24 25 25 25 24 23 22 22 23 25 25 26 27 27 27 26 27 29 29 29 31 31 28 26 27 29 29 28 30 34 36 30 27 30 32 32 34 34 35 34 34 34 34 34 33 32
26 27 29 30 31 32 33 34 35 36 37 38 39 37 35 34 33 30 29 31 31 28 24 22 22 19 15 14 14 15 16 17 18 19 20 20 20 21 22 24 24 24 25 25 25 25 25 24 23 23 24 26 25 25 28 28 28 27 27 30 31 31 33 32 29 27 28 29 30 30 31 35 36 32 29 30 32 33 34 35 36 36 36 35 35 35 34 33
27 28 30 31 32 33 34 35 36 37 38 38 38 36 34 32 31 28 28 31 30 26 22 20 21 18 15 15 16 17 18 19 19 20 21 20 20 22 24 25 24 24 25 26 26 26 26 24 23 24 25 26 25 25 28 29 30 30 29 31 32 32 33 33 32 30 28 29 32 32 33 37 38 37 35 33 33 35 36 36 36 36 37 36 35 35 34 34
28 29 30 31 32 33 34 35 36 37 37 38 37 35 32 32 30 26 28 31 28 24 21 21 21 17 16 17 17 18 20 20 20 21 21 21 22 24 25 25 25 26 27 26 26 27 27 25 24 25 26 26 25 25 27 30 31 32 32 33 34 33 34 34 33 32 31 32 33 33 34 39 41 40 40 36 34 36 36 36 36 36 36 36 35 35 35 35
29 30 31 32 33 34 34 35 36 36 37 37 36 33 31 31 28 25 29 30 26 23 22 22 21 17 18 19 18 20 21 21 21 21 22 22 24 26 26 26 26 27 27 27 28 28 27 26 25 26 27 27 27 26 28 31 32 33 33 33 35 36 36 36 35 33 33 35 37 34 35 41 42 42 43 39 35 36 36 35 36 36 35 35 35 36 36 35
30 31 32 33 33 34 35 35 35 36 36 35 34 32 30 30 27 25 29 29 26 24 23 23 20 18 20 20 19 21 22 20 20 22 23 23 26 27 27 27 28 28 28 28 29 29 27 28 27 27 29 29 29 28 30 33 33 33 33 33 35 37 38 38 38 35 32 35 40 37 36 42 43 42 44 42 38 36 36 35 35 35 35 35 35 36 35 34
31 32 33 33 34 35 35 35 35 35 35 34 33 30 28 28 27 27 29 28 27 25 23 21 19 19 19 19 20 21 21 20 22 25 25 25 27 28 28 29 30 29 29 28 29 30 28 29 29 29 30 31 31 30 31 34 34 33 33 35 37 37 38 39 39 37 32 34 41 39 38 43 43 42 43 43 40 38 37 37 37 37 36 35 35 35 34 33
33 33 34 34 35 35 34 35 34 33 33 32 31 28 27 27 28 29 29 28 28 25 20 18 17 18 19 19 21 22 20 21 25 26 25 27 29 29 30 31 30 31 30 28 30 31 30 30 31 31 30 31 32 31 32 34 35 34 33 34 37 37 38 39 38 37 34 35 41 41 40 43 43 42 44 44 42 42 40 39 39 38 37 35 34 34 33 34
33 34 34 35 35 34 34 34 33 32 31 31 30 28 28 29 29 29 29 28 29 25 19 17 17 19 19 20 22 22 21 23 26 27 27 29 30 29 31 31 31 32 31 29 30 31 32 32 31 31 30 31 33 33 32 34 35 34 34 35 38 38 37 39 39 38 37 38 42 42 40 43 43 43 44 44 43 42 40 40 40 39 37 35 34 33 33 34
34 34 34 35 34 34 34 33 31 30 30 30 29 29 29 30 30 29 28 28 27 23 19 19 19 19 20 22 24 22 23 25 26 27 30 31 31 31 32 31 31 31 31 30 30 30 33 33 32 31 32 32 34 34 33 34 36 36 34 34 37 39 38 40 40 40 40 41 42 43 40 40 42 43 45 44 42 41 38 38 40 38 36 35 35 34 33 34
34 34 35 35 34 34 34 31 30 30 30 29 29 30 30 30 30 29 28 27 25 22 20 19 20 21 22 24 24 24 26 28 27 30 33 32 31 32 32 31 31 32 33 33 31 31 33 32 31 32 33 32 33 35 34 33 37 39 36 35 37 40 40 41 42 40 39 41 42 41 38 37 38 43 46 44 43 44 41 39 40 39 36 34 34 35 35 35
34 35 35 35 34 34 32 29 29 30 29 29 30 31 30 30 30 29 28 26 23 22 20 20 22 23 24 25 26 27 28 29 31 33 33 32 32 32 32 32 31 33 34 34 33 32 32 32 32 32 34 35 35 36 34 32 37 40 38 37 37 39 41 42 42 39 37 40 42 40 38 38 38 42 47 45 45 48 45 42 42 39 35 33 34 35 35 36
35 35 35 34 34 33 30 29 30 30 29 30 31 31 31 30 30 29 28 25 22 21 21 22 24 24 25 26 28 29 30 33 35 33 32 32 33 31 32 32 32 33 33 33 34 32 32 35 35 34 36 36 36 38 35 32 36 40 39 39 40 41 43 42 41 40 39 41 45 43 39 38 40 43 47 46 46 49 47 44 43 38 35 34 34 35 37 39
35 35 34 34 33 31 29 29 29 29 29 30 31 31 31 30 30 28 25 23 22 21 23 25 25 24 26 28 30 30 32 35 35 33 33 33 32 31 32 33 33 35 33 32 36 35 32 35 36 35 37 37 37 38 37 34 37 41 40 40 42 42 42 42 41 43 41 40 45 46 38 37 40 43 46 45 45 48 46 45 45 40 36 35 35 36 38 40
35 35 34 33 32 30 29 29 29 29 30 31 32 31 31 30 29 26 23 22 23 24 25 26 25 26 30 31 31 32 33 34 33 34 35 33 32 32 33 34 33 35 33 31 35 36 33 34 35 35 37 38 37 38 37 35 38 41 41 41 42 41 42 41 41 43 40 36 44 48 40 37 40 43 45 44 44 45 44 45 45 41 37 36 36 38 40 42
35 34 33 33 32 30 30 30 30 30 31 32 32 31 30 29 27 25 24 24 25 27 26 26 26 30 33 33 33 34 34 34 33 34 34 32 33 34 34 35 34 34 35 33 35 37 36 35 35 35 36 36 37 39 37 35 39 41 41 42 43 43 43 41 41 41 36 36 44 49 44 39 41 44 44 43 43 45 45 46 47 43 40 39 39 40 42 43
35 34 33 32 31 31 31 31 31 31 32 33 32 31 30 28 26 23 24 26 27 28 27 27 29 32 33 33 34 34 34 34 34 33 33 34 34 35 35 34 34 35 36 35 35 37 37 37 35 36 35 34 37 40 39 39 41 41 41 43 44 45 43 40 40 37 34 38 45 49 47 41 41 46 46 43 45 47 47 48 49 46 43 42 42 42 41 41
35 35 34 33 32 31 31 31 32 33 33 33 32 31 29 28 27 24 26 29 28 28 28 30 32 33 34 33 34 35 34 34 34 32 33 35 35 35 34 32 34 36 37 37 37 38 39 37 36 36 35 35 38 42 43 43 43 42 43 44 44 43 41 37 37 35 35 41 45 46 45 40 43 49 48 47 49 49 48 47 47 45 43 43 43 41 40 40
36 35 34 33 32 32 32 32 33 33 33 32 31 29 27 27 28 28 29 30 28 29 31 32 33 34 35 34 33 35 34 34 34 34 35 35 34 35 34 32 32 33 34 37 39 40 41 39 36 36 37 37 40 44 45 45 44 45 46 45 42 40 39 38 38 38 40 43 45 47 44 42 46 49 47 48 49 48 46 45 43 41 39 40 41 40 39 39
36 35 34 33 32 32 32 33 33 33 32 31 29 29 28 28 30 30 30 30 30 31 31 32 34 35 34 33 33 34 34 34 35 36 36 35 34 36 34 32 31 31 32 35 37 38 41 42 38 38 40 41 43 44 43 45 46 45 43 40 40 40 40 41 40 41 43 44 47 49 45 42 45 47 44 45 46 46 43 40 38 37 37 40 41 39 38 37
37 35 34 33 33 33 33 33 33 32 31 30 29 29 29 30 31 30 31 31 31 32 32 33 34 34 34 33 33 32 32 35 36 36 35 34 35 35 32 32 33 32 33 34 36 37 40 44 43 41 42 44 47 45 43 44 45 42 40 40 43 44 44 45 46 47 48 47 45 46 45 43 45 47 45 45 46 44 41 38 36 36 38 39 39 37 36 35
36 35 34 34 33 33 33 33 32 32 30 29 29 30 30 31 31 30 30 31 31 32 34 34 32 32 33 33 33 33 33 35 37 36 35 35 35 34 31 32 33 33 34 35 36 37 39 45 47 46 47 46 46 45 44 43 42 42 44 45 48 47 46 47 48 47 48 46 42 43 45 44 44 45 43 43 43 41 39 38 38 37 37 38 37 37 37 36
35 35 34 34 34 34 34 33 32 31 30 29 30 32 32 32 31 30 30 31 31 31 32 33 32 31 32 33 34 35 35 36 36 36 37 36 35 32 31 32 32 34 37 37 37 37 39 46 50 50 49 47 46 46 45 44 43 44 47 48 49 47 45 46 45 43 43 43 41 42 45 45 44 43 42 42 43 42 41 40 39 39 39 40 41 42 41 41
35 34 35 34 34 34 34 33 32 31 31 31 32 33 32 31 31 30 30 30 31 31 31 32 32 31 32 33 35 36 36 37 36 36 37 36 34 33 32 35 36 37 38 38 38 38 40 45 50 49 48 48 48 49 49 46 43 44 47 48 48 46 45 44 42 43 43 42 43 46 48 47 42 41 43 46 45 42 42 42 42 43 44 44 46 46 45 45
35 35 35 35 34 34 34 33 32 31 31 32 33 33 32 31 31 30 30 30 31 31 31 31 31 32 33 34 36 37 36 36 37 37 37 35 35 35 35 38 38 39 40 39 39 40 41 43 47 48 49 51 51 50 49 49 46 46 48 49 47 46 48 47 44 45 45 45 46 47 45 40 37 42 48 48 45 44 47 48 48 47 48 47 47 46 45 45
35 35 35 35 35 35 34 33 32 32 32 33 32 32 32 31 32 31 30 31 31 31 31 31 32 33 35 35 35 36 36 37 37 37 36 37 38 37 37 38 39 41 42 39 39 41 41 42 47 50 51 52 52 49 47 48 48 49 51 52 51 50 50 49 46 44 43 42 43 44 45 43 44 51 53 49 50 54 55 56 54 52 52 51 50 49 48 46
35 35 35 35 35 35 33 32 33 32 33 33 32 32 32 31 31 31 31 31 31 31 31 31 32 33 34 35 35 35 36 37 37 37 37 38 39 37 37 38 40 42 42 40 41 42 42 43 48 52 52 52 53 52 49 49 51 51 52 53 52 50 49 46 43 42 43 45 46 47 51 52 51 52 53 52 56 58 56 57 56 55 54 53 51 50 49 48
36 36 36 35 35 34 32 32 33 33 32 33 32 32 32 31 31 31 31 31 31 32 32 32 32 33 33 34 35 35 36 38 38 38 38 39 38 37 37 39 40 41 41 42 43 43 44 45 47 49 50 52 55 55 53 52 51 50 49 50 49 49 48 46 46 48 50 52 53 51 52 53 51 51 53 54 54 53 53 54 53 52 53 52 51 50 48 46
36 36 36 35 34 33 32 33 34 33 33 33 33 32 32 32 31 31 31 31 31 32 32 32 33 33 34 34 35 35 36 38 39 38 38 38 37 36 37 40 41 41 42 43 44 45 45 45 47 49 50 54 57 55 52 49 47 48 50 51 51 51 51 50 50 52 52 52 52 48 49 52 50 49 52 52 51 50 49 49 48 47 47 47 48 46 44 43
35 35 35 35 34 33 33 34 34 33 34 33 33 33 32 32 31 31 32 32 32 32 32 33 33 34 34 34 35 36 37 37 38 38 38 39 39 39 39 41 43 42 43 44 45 46 45 45 47 49 49 53 55 52 48 47 48 51 54 55 54 55 55 53 52 52 50 51 51 48 49 52 50 50 52 51 49 48 46 45 43 42 41 40 41 41 40 40
34 35 35 34 34 33 34 34 33 33 34 33 33 33 32 31 31 31 31 32 32 32 32 34 34 33 34 35 35 36 36 36 38 40 40 41 42 41 41 44 44 42 44 45 44 44 44 45 47 45 44 49 52 49 49 50 50 51 53 54 55 54 53 51 50 48 47 51 52 48 50 54 53 52 52 49 47 47 45 43 40 38 37 36 36 38 39 40
34 34 34 34 34 34 35 35 33 33 33 32 33 33 31 31 32 31 31 32 32 32 33 34 34 34 35 35 36 36 37 37 38 40 41 42 43 43 45 47 46 45 46 45 42 42 43 46 47 45 44 49 53 53 52 52 52 53 54 55 54 52 51 49 48 47 48 51 50 47 51 55 54 51 50 48 46 44 41 38 36 36 35 35 36 37 36 36
34 35 34 34 34 34 34 34 32 32 32 32 32 32 31 31 33 32 32 32 33 33 33 34 34 34 35 35 36 37 38 39 40 41 42 43 44 45 48 49 47 47 46 43 42 43 44 47 49 48 49 53 55 55 53 52 54 56 57 56 55 52 51 51 50 50 51 49 47 48 51 52 51 50 49 47 43 38 35 35 35 35 35 35 36 37 35 31
35 35 35 35 35 34 34 34 33 32 32 32 32 32 32 32 33 33 33 33 34 34 34 34 34 34 35 36 36 38 40 41 42 42 42 44 46 47 49 49 47 47 45 43 44 44 45 48 50 49 50 54 55 54 53 53 55 56 57 57 56 53 52 53 53 53 52 48 47 50 51 51 52 50 46 42 38 36 36 36 35 35 35 35 36 36 33 28
35 35 35 34 34 34 33 32 32 32 32 32 33 33 32 33 33 33 33 33 34 35 34 33 34 34 36 36 36 38 40 42 43 43 43 45 47 47 48 49 47 46 45 46 46 45 44 47 49 48 49 53 54 53 53 53 55 56 56 56 55 53 53 54 54 52 50 48 49 51 52 51 49 45 41 40 38 37 38 38 37 36 36 37 37 35 31 28
34 34 33 32 33 33 32 31 31 31 32 32 33 33 33 33 33 34 33 33 34 35 34 33 35 36 36 37 37 38 40 41 43 44 45 46 47 47 47 47 48 48 48 48 46 44 44 46 47 47 49 52 54 53 52 52 54 56 57 56 54 53 53 52 51 49 48 48 49 50 50 47 43 39 40 40 38 37 39 39 38 38 38 38 36 33 31 30
34 33 32 31 32 32 32 32 31 31 33 33 33 33 33 33 33 33 34 34 33 34 34 34 36 37 36 37 38 39 41 41 43 45 45 46 47 47 46 47 48 49 48 47 45 43 43 44 46 46 47 50 52 52 53 53 55 56 55 53 51 50 50 50 49 48 47 46 47 46 44 41 39 39 40 38 35 36 37 38 39 38 38 37 35 33 31 30
33 33 32 31 32 33 32 32 32 32 33 33 32 32 32 33 33 32 33 34 32 32 33 34 36 37 38 39 40 40 41 42 44 46 46 47 48 48 47 48 49 48 46 44 43 42 41 43 45 45 46 49 51 51 53 54 52 50 49 49 48 49 51 50 48 47 44 41 40 40 39 38 39 40 40 38 36 36 37 39 39 39 39 37 35 33 31 30
Wind_Direction
4 2 0 359 357 356 354 353 352 351 350 349 348 347 346 344 344 343 342 340 339 338 336 335 335 335 336 336 336 336 334 332 332 332 330 331 333 335 338 337 336 335 335 337 339 343 343 343 345 344 343 342 342 342 343 345 346 348 350 349 346 346 345 346 345 344 345 344 342 342 341 339 337 336 336 336 333 325 320 314 311 309 305 304 303 300 296 293
359 358 356 355 353 352 351 349 348 347 347 346 345 344 343 343 342 342 341 339 337 335 334 333 332 332 333 333 334 334 334 332 333 334 330 332 334 335 336 336 335 332 333 335 336 339 340 340 341 343 342 339 338 339 340 341 343 345 346 344 342 341 341 343 342 341 342 339 338 339 338 337 336 335 336 336 332 328 324 318 314 308 304 305 305 300 294 289
354 353 352 351 349 348 347 346 345 344 343 343 342 342 342 341 341 340 339 338 336 334 332 331 330 330 330 331 331 332 333 332 334 335 331 333 334 333 334 333 332 332 331 331 331 333 335 335 337 339 338 336 334 336 339 338 338 339 342 340 337 337 339 339 336 335 334 333 336 337 336 337 335 334 335 335 332 330 325 320 317 309 303 303 303 299 293 289
349 349 348 346 345 344 343 342 342 341 340 340 340 340 340 339 339 339 338 337 335 334 332 330 329 328 328 328 329 330 330 330 330 329 328 330 331 331 332 331 331 330 329 329 329 330 331 331 334 335 335 333 332 334 335 333 333 336 338 336 333 337 338 334 330 330 329 331 334 336 339 336 334 335 334 334 335 333 325 316 312 308 306 306 303 299 294 289
345 344 343 342 341 340 340 340 340 339 338 338 338 338 338 338 338 337 337 337 335 334 333 331 329 327 327 327 328 328 329 327 322 323 324 326 327 328 330 330 330 329 327 327 327 328 329 329 333 334 333 331 330 333 331 328 330 332 332 329 329 334 334 331 330 329 329 331 331 335 337 334 336 338 333 332 335 330 323 319 316 312 311 311 306 300 295 288
340 340 339 338 338 337 337 338 337 337 336 336 336 336 336 336 336 336 336 336 336 335 334 333 330 328 327 327 327 327 328 322 318 320 320 323 325 326 329 329 329 327 326 326 326 328 328 328 330 331 330 329 328 328 326 325 328 328 329 328 326 327 328 328 329 328 329 329 328 331 332 334 336 335 332 330 325 319 317 319 318 315 315 314 311 304 296 289
336 336 336 335 335 335 335 335 335 335 334 334 334 334 334 334 334 334 334 334 335 335 335 335 333 331 330 328 327 327 326 318 317 319 317 320 322 324 328 327 327 326 326 326 325 327 327 327 328 328 327 326 325 324 323 325 325 325 326 327 325 324 324 323 324 325 326 324 322 326 329 330 328 330 335 330 317 315 316 318 317 315 315 315 313 306 298 292
334 334 333 333 333 333 333 333 333 333 332 333 332 332 333 333 333 332 332 333 333 334 335 335 334 333 333 332 329 327 324 318 318 318 315 317 320 323 325 325 326 326 326 326 325 325 326 326 327 327 326 324 324 323 323 325 324 321 322 323 325 325 323 322 323 321 321 321 320 323 324 321 320 329 333 323 316 317 317 318 318 316 315 313 309 304 300 297
331 331 330 331 331 331 331 331 331 331 331 331 331 331 331 331 331 331 331 331 331 333 334 334 333 333 334 333 332 328 322 319 320 318 315 317 320 322 323 324 326 327 326 326 326 325 325 325 324 325 323 321 322 322 324 326 323 321 321 322 325 324 321 323 323 319 319 320 320 321 319 316 320 328 328 318 315 320 321 320 320 318 315 311 308 304 301 297
328 328 328 328 328 329 329 329 329 329 329 329 329 329 329 330 330 329 329 328 330 332 333 333 332 332 332 332 332 327 320 321 321 318 318 319 321 323 324 325 326 327 325 325 326 326 325 323 321 322 320 319 321 320 322 323 321 322 322 321 321 319 319 321 320 318 319 319 318 317 316 317 321 325 326 320 318 323 325 323 322 320 315 311 308 305 303 298
325 325 325 326 326 327 327 327 328 328 328 328 328 328 328 328 328 328 327 326 328 330 331 331 330 329 330 330 329 323 322 325 323 321 321 322 324 324 325 325 325 325 324 325 325 324 323 320 320 322 321 321 322 320 319 319 320 322 323 321 319 319 319 318 317 317 320 321 318 315 315 318 321 320 318 316 319 324 323 323 323 320 315 312 309 306 304 300
322 322 323 323 324 325 326 326 326 327 327 327 327 327 327 327 326 326 325 324 326 328 329 329 327 326 328 329 326 323 327 329 326 324 325 325 326 325 324 324 324 324 323 323 322 321 321 320 321 320 318 319 321 321 318 319 320 320 322 320 319 323 321 317 318 319 321 322 321 320 318 318 319 313 309 310 315 320 321 321 321 318 315 313 310 308 304 301
319 320 321 322 323 324 324 325 325 326 326 326 326 326 326 325 325 324 322 322 324 326 327 327 326 326 327 327 325 325 329 328 327 328 328 327 326 325 324 324 323 322 321 321 320 320 320 320 320 318 317 318 318 317 317 319 320 318 320 319 319 323 321 318 322 322 320 319 320 322 319 318 318 309 305 310 313 316 319 318 317 317 314 313 311 310 306 302
318 319 320 321 322 322 323 323 324 325 325 325 325 325 325 325 325 324 322 322 322 323 326 327 327 327 328 324 324 328 329 329 331 330 328 327 325 324 323 323 322 320 319 318 318 319 319 319 319 318 316 316 314 315 318 319 319 318 318 318 320 320 317 318 322 321 319 317 319 320 314 313 317 314 307 309 312 314 317 316 315 316 314 312 311 309 307 303
317 318 319 320 320 321 322 322 323 324 324 324 324 324 324 325 325 324 325 323 322 322 325 327 327 328 327 323 325 330 330 331 330 328 326 324 323 323 322 322 321 319 318 318 319 319 319 318 318 317 315 315 316 317 317 317 318 318 317 316 317 316 314 317 318 315 315 315 317 316 312 310 314 318 314 311 313 313 313 313 314 314 312 311 310 309 307 305
315 317 318 318 319 320 321 321 322 323 323 323 324 324 324 324 325 326 326 325 323 323 323 325 326 326 324 322 323 325 327 327 325 324 323 321 321 321 321 321 320 318 317 317 318 318 317 317 316 315 316 317 317 317 316 316 316 316 314 312 313 313 314 317 316 313 313 314 314 311 309 309 312 316 316 314 313 311 310 310 311 311 311 309 308 309 308 306
314 315 317 317 318 319 320 320 321 322 323 324 324 324 323 324 326 327 327 328 326 324 323 324 325 324 318 317 318 320 322 321 321 321 320 319 320 320 320 321 319 318 318 316 316 317 316 316 314 313 316 317 314 315 315 314 313 313 312 309 309 310 312 313 313 313 314 312 310 308 306 305 307 310 312 311 310 308 307 307 307 308 309 308 307 308 308 306
313 314 315 316 317 318 318 319 320 322 323 323 324 323 321 324 326 326 328 329 327 324 322 324 326 322 312 313 315 317 318 317 317 319 318 317 319 320 319 319 317 317 319 318 316 317 316 315 314 312 314 315 313 313 312 309 310 310 309 309 308 308 308 308 309 312 313 309 307 307 305 302 304 308 310 310 308 306 306 305 305 306 306 306 307 306 306 305
312 313 314 315 315 316 317 318 320 321 323 324 325 322 321 325 324 323 329 331 328 324 319 318 322 315 307 309 312 315 316 316 316 318 317 315 318 320 319 318 317 317 318 316 314 315 314 314 314 311 311 310 308 307 306 305 306 307 306 306 306 306 306 306 307 309 309 307 306 305 303 301 304 307 309 311 309 305 306 306 306 307 306 306 306 305 305 304
311 312 313 313 314 314 316 317 319 321 323 324 325 323 323 325 323 321 327 330 328 323 317 314 314 307 304 307 310 315 316 314 315 316 315 314 316 318 318 318 318 317 316 313 311 313 314 314 312 308 306 306 305 305 304 305 306 307 306 304 303 304 304 304 306 308 307 305 304 304 301 300 302 305 308 310 309 306 307 308 306 307 307 305 304 305 305 303
310 311 312 312 313 313 314 316 318 320 322 324 326 326 325 325 324 322 324 325 324 321 316 312 309 305 304 304 309 315 314 310 312 314 312 312 316 317 316 318 318 317 315 312 312 313 314 313 310 306 304 306 306 306 306 306 307 306 305 304 304 304 303 304 306 308 307 304 303 304 302 300 301 304 307 308 308 306 306 306 306 307 306 303 303 303 303 303
310 311 311 311 311 312 313 315 316 319 321 323 327 328 325 324 323 322 323 322 322 321 316 311 310 310 307 305 310 316 312 309 312 313 311 313 317 316 316 318 317 315 315 315 314 315 313 311 308 307 308 310 309 308 307 306 306 306 306 305 305 305 305 305 306 307 307 304 303 304 302 300 301 303 305 307 308 306 303 302 303 305 303 302 302 302 302 304
309 310 311 310 310 311 312 313 314 317 319 322 326 325 323 323 321 322 323 321 321 322 320 315 314 314 311 309 313 315 311 310 312 312 312 314 316 315 315 316 314 313 315 313 311 312 312 310 308 309 312 313 310 310 309 308 308 307 307 306 305 307 307 305 306 307 306 304 303 304 301 300 303 303 304 307 308 306 304 302 302 302 300 299 302 301 301 304
308 310 310 310 310 310 311 311 312 315 317 320 323 322 322 322 321 321 321 319 319 318 316 314 313 313 312 312 314 314 311 310 310 311 314 315 314 315 315 313 313 313 312 310 309 308 308 308 310 311 312 312 311 312 312 310 309 308 307 307 305 306 305 303 306 308 307 304 303 304 301 299 303 303 303 307 309 308 307 306 305 303 298 298 302 301 300 302
308 309 309 310 309 309 309 308 310 313 314 317 319 320 321 320 319 319 318 319 317 312 311 311 313 314 313 314 313 312 311 310 310 312 314 314 313 314 314 313 313 312 310 310 310 308 307 309 311 312 313 313 312 312 312 310 309 310 309 307 304 304 304 303 306 310 307 304 305 306 302 300 303 302 303 308 309 308 309 308 306 303 299 298 300 299 299 301
306 307 308 309 308 309 307 305 308 311 312 314 316 317 318 318 318 317 317 318 314 310 311 311 312 313 314 315 313 312 312 311 311 313 313 312 312 313 313 312 312 311 309 311 310 308 310 313 314 313 313 313 313 312 311 311 310 310 310 310 307 306 306 305 307 307 304 303 306 306 301 300 302 301 303 308 308 308 309 308 307 304 299 298 299 298 298 301
305 306 307 307 308 308 306 304 307 309 310 311 314 315 316 316 317 315 315 315 310 307 309 310 311 312 313 313 315 315 312 310 313 314 313 313 312 312 311 311 311 310 311 312 309 308 311 312 313 313 312 313 313 312 311 313 310 308 312 314 312 309 307 306 305 304 302 303 304 304 300 298 298 299 303 306 306 307 308 308 307 304 297 295 297 299 299 301
303 304 305 306 306 306 305 304 305 307 307 309 312 313 314 315 314 314 315 310 305 306 306 308 310 311 313 313 315 315 311 312 314 313 314 314 312 313 311 309 309 308 311 310 306 307 310 310 311 312 312 312 311 310 313 314 310 309 313 314 311 309 307 306 305 303 303 303 301 303 303 298 296 299 303 305 304 305 306 306 307 304 297 294 296 300 301 302
301 301 303 303 303 303 303 303 303 304 305 307 310 310 312 312 311 313 312 302 302 305 305 307 308 309 313 314 314 315 312 313 313 311 315 314 312 313 310 308 309 308 309 307 303 306 309 310 311 312 311 310 310 311 314 313 310 311 314 312 310 309 307 306 305 303 303 300 298 301 303 298 297 299 301 303 303 303 304 305 307 303 296 295 296 300 302 301
298 299 300 301 301 301 301 302 301 302 304 306 307 308 310 310 310 312 306 298 301 304 303 306 306 308 313 314 313 312 311 311 311 312 315 314 312 312 309 309 310 309 309 307 304 305 307 309 310 310 309 310 312 313 313 310 309 312 315 313 311 309 307 305 304 303 302 298 296 299 300 297 297 298 300 301 301 303 304 304 305 302 297 294 295 299 301 300
296 297 298 299 299 299 300 300 299 301 303 304 305 307 308 307 308 306 299 299 302 302 304 306 306 308 312 312 311 310 311 311 312 314 315 313 312 313 313 312 312 311 309 309 307 305 308 310 309 308 309 312 313 312 312 311 312 314 315 314 313 310 309 307 305 305 301 299 299 300 300 296 294 298 301 301 300 302 302 301 302 301 297 294 296 300 300 299
294 295 296 296 296 298 299 298 299 301 302 302 304 305 306 306 305 298 297 303 303 301 304 303 304 307 309 310 308 308 311 311 313 316 314 313 313 314 315 313 312 311 309 310 309 307 307 307 307 309 310 312 314 313 312 313 314 315 315 315 314 312 312 309 307 306 301 299 302 304 303 298 293 297 301 300 301 301 300 300 301 299 297 296 298 300 299 298
292 293 293 294 294 296 297 297 299 300 301 302 303 304 305 304 299 296 299 302 300 301 303 302 304 306 307 309 309 309 311 311 313 315 314 313 314 313 313 310 310 309 308 310 311 310 309 307 309 311 309 312 315 314 313 313 314 314 314 314 313 313 313 308 306 306 302 301 304 305 304 300 297 300 301 300 300 300 299 301 301 299 298 298 299 298 298 298
290 291 290 291 292 293 295 298 298 298 300 301 301 303 304 299 296 298 299 298 299 302 303 303 305 306 307 308 308 311 312 309 312 315 313 314 314 314 314 312 312 310 309 310 310 310 310 308 310 311 309 312 313 311 310 311 311 311 311 310 309 311 310 306 306 306 304 303 304 303 302 299 299 303 303 301 300 301 302 303 301 299 298 298 298 297 297 298
289 288 288 288 290 291 295 297 296 297 298 299 301 301 299 295 296 298 297 298 301 302 303 303 306 307 307 306 307 312 313 309 311 314 313 313 314 313 312 312 313 313 312 312 309 308 307 304 307 309 309 310 311 310 311 311 311 311 312 310 309 310 307 304 303 302 302 302 302 301 299 297 300 303 304 303 302 303 304 302 298 297 297 297 297 295 293 295
287 287 286 286 287 289 293 294 295 296 296 297 300 298 294 294 296 296 296 299 301 302 303 304 305 306 305 306 307 311 312 309 311 312 311 312 312 309 310 311 312 313 313 311 308 306 304 303 306 309 309 309 309 310 312 312 311 311 311 308 307 308 307 304 302 301 300 299 300 301 299 300 303 303 305 307 306 306 306 302 297 296 298 297 295 293 291 293
286 286 285 285 286 288 290 292 293 295 295 296 296 294 294 295 294 294 296 299 300 302 304 304 304 304 304 305 305 307 310 309 310 311 310 311 311 308 309 310 311 314 313 309 306 305 303 302 305 308 308 309 310 310 309 308 308 309 309 309 309 308 306 306 305 304 302 299 300 301 299 302 304 303 307 310 307 306 306 303 299 298 299 298 296 293 291 292
285 285 285 284 285 287 288 290 292 293 294 295 295 294 294 295 294 295 296 298 299 301 302 301 301 302 303 303 303 305 308 308 308 309 309 309 309 308 310 310 311 314 311 307 306 305 304 302 304 307 308 309 311 310 308 308 308 307 306 309 310 310 309 308 306 305 304 301 301 300 297 299 300 302 308 309 306 305 305 304 302 300 299 298 296 294 291 292
284 284 284 284 285 286 287 288 289 291 293 293 293 294 294 293 294 295 297 298 298 299 299 297 299 301 301 301 302 304 305 305 306 308 308 308 307 309 312 310 310 312 310 308 306 305 305 303 302 307 310 309 310 310 309 310 310 308 307 308 308 307 307 306 303 303 303 301 300 300 298 299 301 304 306 305 304 305 304 303 302 300 298 297 296 294 291 291
284 284 283 283 284 285 286 287 288 290 292 291 291 292 293 293 293 293 296 297 297 297 297 296 298 300 300 301 302 302 303 303 304 305 305 305 306 309 311 309 309 311 310 309 308 306 306 303 301 306 310 309 309 310 311 311 312 311 310 308 308 307 306 305 301 300 301 300 301 301 299 297 300 303 303 301 301 302 302 300 299 297 296 296 295 293 291 290
284 284 283 282 283 284 284 286 287 289 291 291 291 291 292 293 293 293 295 297 296 295 295 296 297 298 298 300 301 301 302 303 304 304 303 304 306 308 310 311 311 310 308 308 308 307 307 305 303 305 308 307 307 309 310 310 309 309 307 308 308 309 309 307 302 301 301 299 298 299 297 296 300 302 301 302 302 301 301 300 297 295 294 294 293 292 290 289
282 283 282 281 282 282 283 285 287 289 289 290 290 290 291 292 293 294 295 297 296 295 296 296 296 297 297 299 301 301 302 302 303 303 303 304 307 306 309 313 312 309 308 307 306 306 307 305 303 303 305 305 305 308 309 308 307 306 305 307 308 308 308 306 302 302 301 298 297 296 293 296 302 303 303 303 303 302 302 301 299 297 296 294 293 291 290 288
281 281 280 280 280 280 282 285 287 288 287 287 288 288 289 290 292 293 294 295 295 296 297 297 296 298 297 298 301 301 301 302 301 303 304 304 307 307 308 314 313 309 309 307 306 307 307 306 305 304 304 304 304 306 308 308 308 307 306 307 307 306 304 302 300 301 300 298 299 297 293 297 303 304 304 304 304 304 304 303 301 300 299 297 295 292 291 289
280 280 279 279 279 279 281 284 285 286 285 286 287 288 288 289 290 292 293 293 295 295 296 296 296 297 298 299 300 299 300 301 301 304 304 303 305 307 310 315 314 310 309 308 307 308 308 308 308 308 309 308 308 309 310 310 309 308 307 307 306 305 304 302 301 301 298 297 299 297 295 299 304 305 305 305 305 305 305 305 305 304 304 303 300 295 291 290
280 281 280 279 279 279 280 282 284 285 284 285 287 287 287 288 289 291 292 292 294 295 295 295 296 297 299 301 301 300 300 300 301 303 304 303 305 306 310 314 313 309 308 306 306 308 308 308 309 309 309 309 309 311 312 311 310 307 306 306 306 306 305 304 303 301 299 299 298 295 296 300 303 305 305 305 306 306 307 308 308 306 305 304 302 299 294 289
278 280 280 280 280 279 281 283 283 284 283 284 285 285 285 287 289 291 291 292 295 297 295 295 297 299 300 301 301 300 300 300 301 302 303 304 305 306 309 312 311 308 307 305 306 309 308 306 307 305 303 303 304 306 309 309 308 306 306 306 306 307 306 304 302 300 299 299 297 295 297 299 302 305 306 306 307 308 308 309 308 305 304 303 302 302 298 291
276 278 278 279 280 280 281 282 281 282 283 282 283 285 285 287 289 291 292 293 295 296 296 297 299 299 298 299 300 298 299 301 301 301 302 304 305 306 308 311 310 308 308 306 307 309 308 306 306 304 301 301 303 305 307 307 306 305 306 306 307 307 305 303 300 299 300 299 297 298 299 300 302 305 305 306 307 307 307 308 307 303 302 304 304 304 302 296
275 277 277 278 279 279 281 280 278 279 281 282 283 285 286 287 288 290 292 293 294 294 294 296 298 298 297 298 299 298 299 301 301 302 303 304 305 307 308 309 308 307 307 307 309 310 307 305 306 305 302 303 304 306 307 307 306 306 306 307 307 307 305 302 300 299 299 297 297 300 301 300 301 303 304 304 305 304 304 304 304 301 302 306 307 306 304 298
274 276 277 277 278 279 280 280 277 278 280 282 284 285 285 285 287 288 290 292 293 294 294 294 295 296 296 296 298 298 299 301 302 303 305 305 306 307 308 308 308 308 309 309 309 310 307 306 307 306 304 304 306 307 307 306 306 306 306 307 307 306 304 303 301 301 300 298 298 301 301 300 301 301 302 302 301 300 301 302 302 301 303 306 307 305 302 295
272 274 275 277 279 280 280 280 279 280 281 282 284 285 285 284 286 288 289 289 290 293 295 294 293 294 294 295 297 297 298 300 301 303 305 305 306 308 307 308 309 310 310 310 310 310 308 307 308 308 306 306 307 308 307 307 307 307 308 309 308 307 305 304 304 304 303 301 301 302 301 301 302 302 301 301 300 299 300 302 303 302 303 304 303 300 297 293
270 273 274 276 279 279 279 280 279 280 282 282 283 284 285 284 285 287 289 290 290 291 293 292 292 294 295 296 297 297 298 300 300 300 302 303 305 306 306 307 309 310 310 311 311 311 310 308 309 309 306 306 309 310 309 308 308 307 309 310 310 308 307 306 307 307 305 303 303 304 304 304 306 305 303 301 300 299 300 302 302 301 301 301 299 295 294 293
269 272 274 276 278 278 278 279 279 279 281 282 282 283 285 285 285 287 290 292 292 292 292 292 292 294 296 297 297 298 299 300 300 301 302 303 303 303 304 305 307 308 309 311 311 311 311 309 310 310 307 307 310 311 310 310 309 309 312 313 312 310 309 308 307 306 305 305 304 304 305 306 309 309 306 302 300 299 300 302 301 300 299 298 294 291 292 293